Weather History for CWQS - December, 2012

Change the Weather History Date:

Saturday, December 1, 2012

  Actual Average Record
Temperature  
Mean Temperature 46 °F -  
Max Temperature 49 °F - - ()
Min Temperature 43 °F - - ()
Degree Days  
Heating Degree Days 19    
Moisture  
Dew Point 42 °F    
Average Humidity 84    
Maximum Humidity 90    
Minimum Humidity 71    
Precipitation  
Precipitation 0.12 in - - ()
Sea Level Pressure  
Sea Level Pressure 29.01 in    
Wind  
Wind Speed 6 mph ()    
Max Wind Speed 14 mph    
Max Gust Speed 20 mph    
T = Trace of Precipitation, MM = Missing Value Source: Averaged Metar Reports

Daily Weather History Graph

Daily Weather History Graph

Search for Another Location

Airport or City:

Trip Planner

Search our weather history database for the weather conditions in past years. The results will help you decide how hot, cold, wet, or windy it might be!

Date:

Astronomy

Dec. 01, 2012 Rise Set
Actual Time 8:44 AM PST 4:36 PM PST
Civil Twilight 8:02 AM PST 5:17 PM PST
Nautical Twilight 7:18 AM PST 6:02 PM PST
Astronomical Twilight 6:36 AM PST 6:44 PM PST
Moon 7:41 PM PST (12/1) 10:55 AM PST (12/1)
Length of Visible Light 9h 15m
Length of Day
7h 52m
Waning Gibbous, 91% of the Moon is Illuminated
Dec 1
Waning Gibbous
Dec 6
Last Quarter
Dec 13
New
Dec 19
First Quarter
Dec 28
Full

Hourly Weather History & Observations

Time (PST) Temp. Windchill Dew Point Humidity Pressure Visibility Wind Dir Wind Speed Gust Speed Precip Events Conditions
12:00 AM 45.9 °F 39.7 °F 43.2 °F 90% 29.00 in - SSE 13.8 mph 19.6 mph 0.04 in   Unknown
1:00 AM 46 °F - 42 °F 83% 29.01 in - SSE 6.9 mph - -  
1:00 AM 46.4 °F 42.9 °F 42.4 °F 86% 29.01 in - SSE 6.9 mph - 0.01 in   Unknown
2:00 AM 46.8 °F - 42.6 °F 85% 29.01 in - SSE 8.1 mph - 0.01 in   Unknown
3:00 AM 46.2 °F - 42.4 °F 87% 29.02 in - SW 1.2 mph - 0.02 in   Unknown
4:00 AM 46 °F - 43 °F 84% 29.03 in - SE 6.9 mph - -  
4:00 AM 46.2 °F 42.7 °F 42.8 °F 88% 29.03 in - SE 6.9 mph - N/A   Unknown
5:00 AM 45.3 °F 44.0 °F 42.4 °F 90% 29.03 in - SE 3.5 mph - N/A   Unknown
6:00 AM 45.3 °F 44.0 °F 42.6 °F 90% 29.03 in - ESE 3.5 mph - N/A   Unknown
7:00 AM 46 °F - 43 °F 84% 29.04 in - SE 4.6 mph - -  
7:00 AM 45.5 °F 43.2 °F 42.8 °F 90% 29.04 in - SE 4.6 mph - N/A   Unknown
8:00 AM 45.0 °F 40.1 °F 42.3 °F 90% 29.04 in - SE 9.2 mph - N/A   Unknown
9:00 AM 45.1 °F 42.0 °F 42.3 °F 90% 29.04 in - SE 5.8 mph - 0.01 in   Unknown
10:00 AM 45 °F - 42 °F 86% 29.05 in - ESE 2.3 mph - -  
10:00 AM 45.1 °F - 42.3 °F 90% 29.05 in - ESE 2.3 mph - N/A   Unknown
11:00 AM 45.7 °F 43.4 °F 42.4 °F 88% 29.05 in - SSE 4.6 mph - N/A   Unknown
12:00 PM 46.6 °F - 42.3 °F 85% 29.04 in - NE 4.6 mph - N/A   Unknown
1:00 PM 47 °F - 42 °F 78% 29.03 in - NW 3.5 mph - -  
1:00 PM 47.3 °F - 42.3 °F 83% 29.03 in - NW 3.5 mph - N/A   Unknown
2:00 PM 48.9 °F - 42.6 °F 79% 29.02 in - East 6.9 mph - N/A   Unknown
3:00 PM 47.5 °F - 40.1 °F 76% 29.00 in - East 9.2 mph - N/A   Unknown
4:00 PM 46 °F - 40 °F 71% 28.99 in - East 9.2 mph - -  
4:00 PM 46.4 °F 41.9 °F 39.6 °F 77% 28.99 in - East 9.2 mph - N/A   Unknown
5:00 PM 45.9 °F 44.6 °F 39.2 °F 78% 28.99 in - East 3.5 mph - N/A   Unknown
6:00 PM 45.0 °F 41.8 °F 40.6 °F 85% 28.99 in - ESE 5.8 mph - 0.01 in   Unknown
7:00 PM 45 °F - 40 °F 77% 28.98 in - ESE 5.8 mph - -  
7:00 PM 44.6 °F 41.4 °F 40.1 °F 84% 28.98 in - ESE 5.8 mph - 0.02 in   Unknown
8:00 PM 44.6 °F 40.2 °F 39.9 °F 84% 28.99 in - SSE 8.1 mph - N/A   Unknown
9:00 PM 43.9 °F 41.3 °F 40.3 °F 87% 28.98 in - ESE 4.6 mph - N/A   Unknown
10:00 PM 44 °F - 40 °F 79% 28.98 in - ESE 3.5 mph - -  
10:00 PM 43.5 °F 41.9 °F 39.6 °F 86% 28.98 in - ESE 3.5 mph - N/A   Unknown
11:00 PM 43.5 °F - 39.9 °F 87% 28.98 in - ESE 2.3 mph - N/A   Unknown